Waarnemingen

Advertentie
Mijn weer
Karesuando, Zweden (2080): temperatuur & dauwpunt: 01.08.2020 23:00:00 - 07.08.2020 23:00:00 (CEST)Karesuando, Zweden (2080): windsnelheid & windstoten: 01.08.2020 23:00:00 - 07.08.2020 23:00:00 (CEST)Karesuando, Zweden (2080): windrichting: 01.08.2020 23:00:00 - 07.08.2020 23:00:00 (CEST)Karesuando, Zweden (2080): luchtdruk: 01.08.2020 23:00:00 - 07.08.2020 23:00:00 (CEST)Karesuando, Zweden (2080): zicht: 01.08.2020 23:00:00 - 07.08.2020 23:00:00 (CEST)Karesuando, Zweden (2080): neerslag: 01.08.2020 23:00:00 - 07.08.2020 23:00:00 (CEST)
Datum & Tijd tt [°C] td [°C] ff [km/u] ff [kn] fx [km/u] fx [kn] dd ppp [hPa] vv [km] rr [mm]
07.08.2020 23:00:00 - - - - - - - - - -
07.08.2020 22:00:00 13,0 7,7 3 2 9 5 ONO 1022,1 50 0,0
07.08.2020 21:00:00 15,8 8,5 2 1 9 5 ONO 1021,5 50 0,0
07.08.2020 20:00:00 18,5 7,3 6 3 11 6 N 1020,9 26 0,0
07.08.2020 19:00:00 20,2 7,2 6 3 12 7 NW 1020,6 7 0,0
07.08.2020 18:00:00 20,5 7,8 8 5 14 8 NNW 1020,5 18 0,0
07.08.2020 17:00:00 20,3 6,3 9 5 21 11 NNW 1020,5 16 0,0
07.08.2020 16:00:00 20,4 6,3 10 5 20 11 WNW 1020,5 12 0,0
07.08.2020 15:00:00 20,2 6,2 13 7 22 12 W 1020,7 11 0,0
07.08.2020 14:00:00 20,0 8,3 7 4 25 14 NW 1020,6 15 0,0
07.08.2020 13:00:00 19,7 8,7 9 5 23 12 WNW 1020,7 13 0,0
07.08.2020 12:00:00 17,8 8,1 12 6 24 13 NW 1020,8 13 0,0
07.08.2020 11:00:00 18,4 8,9 16 9 28 15 NW 1020,5 9 0,0
07.08.2020 10:00:00 17,2 8,3 18 10 29 16 NW 1020,5 16 0,0
07.08.2020 09:00:00 17,0 8,4 17 9 30 16 WNW 1020,0 16 0,0
07.08.2020 08:00:00 16,5 10,6 14 7 23 13 W 1019,9 50 0,0
07.08.2020 07:00:00 14,7 10,1 13 7 20 11 WZW 1019,9 50 0,0
07.08.2020 06:00:00 14,1 9,9 9 5 17 9 WZW 1019,6 50 0,0
07.08.2020 05:00:00 14,2 9,6 13 7 24 13 WZW 1019,1 50 0,0
07.08.2020 04:00:00 14,0 9,8 16 8 23 12 W 1018,5 50 0,0
07.08.2020 03:00:00 13,7 9,7 14 7 21 12 WZW 1018,1 50 0,0
07.08.2020 02:00:00 13,1 9,9 11 6 15 8 ZW 1017,9 50 0,0
07.08.2020 01:00:00 13,8 10,0 7 4 13 7 ZW 1017,4 50 0,0
07.08.2020 00:00:00 14,2 10,2 9 5 14 7 ZW 1017,1 50 0,0
06.08.2020 23:00:00 14,6 10,8 8 4 13 7 ZZW 1016,6 50 0,0
06.08.2020 22:00:00 15,2 10,4 5 3 13 7 Z 1015,9 50 0,0
06.08.2020 21:00:00 16,2 10,1 8 4 14 8 ZZW 1015,5 24 0,0
06.08.2020 20:00:00 17,5 10,1 6 4 18 10 ZZW 1015,0 12 0,0
06.08.2020 19:00:00 18,4 9,2 9 5 23 12 ZZW 1014,8 17 0,0
06.08.2020 18:00:00 19,5 8,2 8 5 16 9 ZZW 1014,5 25 0,0
06.08.2020 17:00:00 19,7 8,7 5 3 16 9 Z 1014,4 21 0,0
06.08.2020 16:00:00 19,9 8,3 9 5 23 12 ZZW 1014,3 23 0,0
06.08.2020 15:00:00 21,4 7,2 9 5 25 13 ZZW 1013,8 23 0,0
06.08.2020 14:00:00 20,5 8,2 8 5 25 14 ZW 1013,7 22 0,0
06.08.2020 13:00:00 20,0 9,0 9 5 22 12 ZW 1013,6 20 0,0
06.08.2020 12:00:00 17,1 9,0 10 5 17 9 ZW 1014,0 20 0,0
06.08.2020 11:00:00 18,1 11,2 6 3 16 9 ZW 1013,6 20 0,0
06.08.2020 10:00:00 17,0 12,3 6 3 13 7 ZZW 1013,4 17 0,0
06.08.2020 09:00:00 14,2 10,4 3 2 9 5 ZW 1013,4 14 0,0
06.08.2020 08:00:00 11,1 10,9 3 2 7 4 ZZW 1013,3 3,0 0,0
06.08.2020 07:00:00 9,1 8,8 3 2 7 4 WZW 1013,3 0,3 0,0
06.08.2020 06:00:00 8,7 8,6 3 2 8 5 W 1013,0 0,2 0,0
06.08.2020 05:00:00 7,7 7,6 3 2 9 5 Z 1012,8 0,2 0,0
06.08.2020 04:00:00 7,1 6,8 2 1 8 4 ZW 1012,6 0,2 0,0
06.08.2020 03:00:00 6,8 6,5 6 3 10 5 ZZW 1012,0 0,2 0,0
06.08.2020 02:00:00 7,7 7,3 3 1 9 5 ZW 1011,5 7 0,0
06.08.2020 01:00:00 9,0 8,4 5 3 7 4 NNW 1010,8 11 0,0
06.08.2020 00:00:00 10,4 9,6 2 1 9 5 NW 1010,0 47 0,0
05.08.2020 23:00:00 11,9 10,1 6 3 16 9 NNO 1009,4 50 0,0
05.08.2020 22:00:00 12,8 10,9 8 4 12 7 NNW 1008,9 50 0,0
05.08.2020 21:00:00 13,8 10,8 4 2 10 6 ZO 1008,3 38 0,0
05.08.2020 20:00:00 14,2 11,5 5 3 - - ONO 1007,6 46 0,1
05.08.2020 19:00:00 14,8 10,8 10 5 16 9 NNW 1006,9 29 0,0
05.08.2020 18:00:00 15,2 12,0 3 2 18 10 O 1006,4 26 0,4
05.08.2020 17:00:00 16,0 9,7 9 5 21 12 N 1006,1 17 0,0
05.08.2020 16:00:00 18,5 9,3 8 5 21 11 NW 1005,3 22 0,0
05.08.2020 15:00:00 16,7 7,6 11 6 21 12 NW 1005,5 20 0,0
05.08.2020 14:00:00 17,8 10,7 10 5 30 16 W 1005,0 20 0,0
05.08.2020 13:00:00 16,8 9,2 13 7 24 13 WNW 1004,9 15 0,0
05.08.2020 12:00:00 18,4 11,2 12 7 20 11 NNW 1004,4 16 0,0
05.08.2020 11:00:00 17,8 10,4 9 5 17 9 WNW 1004,4 14 0,0
05.08.2020 10:00:00 17,4 11,4 5 3 11 6 WZW 1004,5 38 0,0
05.08.2020 09:00:00 15,1 10,9 5 3 12 7 NW 1004,9 34 0,0
05.08.2020 08:00:00 14,8 10,0 6 3 18 10 N 1004,8 32 0,0
05.08.2020 07:00:00 13,1 10,1 9 5 14 7 NW 1004,9 40 0,0
05.08.2020 06:00:00 11,6 10,2 4 2 10 5 NW 1005,1 46 0,0
05.08.2020 05:00:00 10,8 9,7 4 2 8 4 W 1004,9 42 0,0
05.08.2020 04:00:00 10,3 9,4 5 3 8 4 WZW 1004,9 49 0,0
05.08.2020 03:00:00 10,5 9,6 5 3 9 5 WNW 1004,7 43 0,0
05.08.2020 02:00:00 10,7 9,1 4 2 9 5 Z 1004,6 50 0,0
05.08.2020 01:00:00 10,4 8,7 4 2 7 4 ZZW 1004,5 50 0,0
05.08.2020 00:00:00 10,9 8,8 3 2 6 3 Z 1004,2 50 0,0
04.08.2020 23:00:00 11,2 8,9 3 2 6 4 OZO 1004,1 50 0,0
04.08.2020 22:00:00 12,2 9,8 5 3 7 4 OZO 1003,8 46 0,0
04.08.2020 21:00:00 13,0 8,9 0 0 5 3 N 1003,4 46 0,0
04.08.2020 20:00:00 13,5 9,2 3 2 10 5 WNW 1003,3 17 0,0
04.08.2020 19:00:00 14,5 9,1 4 2 6 4 WNW 1002,9 24 0,0
04.08.2020 18:00:00 14,8 9,0 2 1 11 6 WNW 1002,7 14 0,0
04.08.2020 17:00:00 14,8 9,0 11 6 24 13 WZW 1002,7 19 0,0
04.08.2020 16:00:00 15,2 8,0 15 8 27 14 WZW 1002,7 16 0,0
04.08.2020 15:00:00 16,7 9,1 15 8 33 18 WZW 1002,3 23 0,0
04.08.2020 14:00:00 19,8 7,5 7 4 20 11 WZW 1001,3 14 0,0
04.08.2020 13:00:00 18,6 8,3 7 4 17 9 ZZW 1001,4 15 0,0
04.08.2020 12:00:00 17,5 6,4 7 4 13 7 ZZO 1001,4 18 0,0
04.08.2020 11:00:00 18,4 6,9 6 3 18 10 W 1001,3 14 0,0
04.08.2020 10:00:00 17,1 8,0 5 3 11 6 ZO 1001,5 12 0,0
04.08.2020 09:00:00 15,8 9,2 8 4 13 7 O 1001,8 15 0,0
04.08.2020 08:00:00 14,0 8,2 6 3 11 6 O 1002,1 17 0,0
04.08.2020 07:00:00 11,8 8,1 5 3 9 5 O 1002,4 11 0,0
04.08.2020 06:00:00 9,8 7,6 6 3 10 5 O 1002,7 13 0,0
04.08.2020 05:00:00 8,7 7,2 6 3 9 5 O 1003,0 11 0,0
04.08.2020 04:00:00 6,3 5,3 2 1 10 5 ONO 1003,6 4,3 0,0
04.08.2020 03:00:00 7,8 7,0 5 3 9 5 O 1003,4 11 0,0
04.08.2020 02:00:00 7,2 6,5 5 3 8 4 W 1003,5 14 0,0
04.08.2020 01:00:00 7,3 6,4 4 2 8 5 W 1003,3 14 0,0
04.08.2020 00:00:00 8,8 6,9 3 2 14 8 ZW 1003,0 42 0,0
03.08.2020 23:00:00 10,5 7,0 6 3 9 5 ZZW 1002,5 50 0,0
03.08.2020 22:00:00 12,0 7,9 4 2 8 4 Z 1002,3 50 0,0
03.08.2020 21:00:00 14,8 8,1 4 2 - - ZZO 1001,9 50 0,0
03.08.2020 20:00:00 17,5 7,0 4 2 8 4 OZO 1001,5 16 0,0
03.08.2020 19:00:00 17,4 6,9 3 2 6 4 O 1001,4 21 0,0
03.08.2020 18:00:00 18,4 6,3 4 2 8 4 NNO 1001,5 19 0,0
03.08.2020 17:00:00 16,9 7,8 3 1 15 8 ZO 1001,9 18 0,0
03.08.2020 16:00:00 19,3 6,7 5 3 14 7 ZW 1002,0 19 0,0
03.08.2020 15:00:00 19,2 6,0 7 4 29 15 Z 1002,2 15 0,0
03.08.2020 14:00:00 18,5 6,7 6 3 12 6 O 1002,6 17 0,0
03.08.2020 13:00:00 17,6 5,2 5 3 11 6 ONO 1003,0 16 0,0
03.08.2020 12:00:00 17,9 7,3 6 3 15 8 W 1003,2 17 0,0
03.08.2020 11:00:00 17,0 6,5 5 3 13 7 Z 1003,6 14 0,0
03.08.2020 10:00:00 16,7 7,9 3 1 9 5 OZO 1004,1 14 0,0
03.08.2020 09:00:00 14,7 8,4 3 2 7 4 O 1004,9 15 0,0
03.08.2020 08:00:00 11,6 8,1 4 2 8 4 O 1005,9 9 0,0
03.08.2020 07:00:00 7,8 7,7 0 0 6 3 N 1007,0 1,1 0,0
03.08.2020 06:00:00 5,6 5,5 0 0 5 3 N 1007,6 0,1 0,1
03.08.2020 05:00:00 4,5 4,4 2 1 4 2 OZO 1008,2 0,1 0,0
03.08.2020 04:00:00 3,1 2,8 0 0 4 2 N 1008,8 0,1 0,0
03.08.2020 03:00:00 4,7 4,3 4 2 5 3 OZO 1008,9 0,2 0,0
03.08.2020 02:00:00 5,0 4,4 3 2 5 3 ZZO 1009,3 11 0,0
03.08.2020 01:00:00 5,5 4,8 3 1 6 3 WNW 1009,6 0,6 0,0
03.08.2020 00:00:00 7,1 5,7 0 0 8 5 N 1009,5 9 0,0
02.08.2020 23:00:00 9,2 6,6 4 2 8 4 ZO 1009,2 21 0,0
02.08.2020 22:00:00 11,1 6,6 4 2 10 5 OZO 1009,0 8 0,0
02.08.2020 21:00:00 12,9 6,9 5 3 15 8 OZO 1009,0 14 0,0
02.08.2020 20:00:00 14,5 6,1 6 3 14 8 O 1009,0 16 0,0
02.08.2020 19:00:00 15,2 6,0 5 3 13 7 OZO 1009,2 17 0,0
02.08.2020 18:00:00 15,6 5,5 7 4 14 8 O 1009,4 14 0,0
02.08.2020 17:00:00 16,0 6,1 8 4 14 8 O 1009,8 14 0,0
02.08.2020 16:00:00 15,8 5,7 5 3 15 8 O 1010,2 16 0,0
02.08.2020 15:00:00 15,5 5,4 9 5 16 9 OZO 1010,7 14 0,0
02.08.2020 14:00:00 14,5 5,8 8 5 18 10 O 1011,3 13 0,0
02.08.2020 13:00:00 15,3 7,1 6 3 18 10 O 1011,5 14 0,0
02.08.2020 12:00:00 13,8 7,8 5 3 15 8 NNO 1012,2 13 0,0
02.08.2020 11:00:00 12,0 6,1 6 3 18 10 O 1012,9 17 0,0
02.08.2020 10:00:00 13,2 7,2 6 3 16 9 NNO 1013,1 15 0,0
02.08.2020 09:00:00 10,2 5,4 8 4 18 10 NNO 1013,9 17 0,0
02.08.2020 08:00:00 9,7 6,8 8 5 18 10 N 1014,2 17 0,0
02.08.2020 07:00:00 7,9 5,7 10 5 19 10 ONO 1014,8 22 0,0
02.08.2020 06:00:00 8,0 6,1 9 5 - - ONO 1015,0 20 0,0
02.08.2020 05:00:00 8,4 5,9 10 6 21 12 NO 1015,1 17 0,0
02.08.2020 04:00:00 9,0 6,4 8 4 16 9 NO 1015,3 16 0,0
02.08.2020 03:00:00 9,7 6,8 8 5 14 8 NO 1015,1 12 0,0
02.08.2020 02:00:00 10,2 7,4 8 4 14 7 ONO 1015,1 - 0,0
02.08.2020 01:00:00 10,9 7,9 7 4 15 8 ONO 1015,2 15 0,0
02.08.2020 00:00:00 11,5 8,9 6 3 17 9 NO 1015,1 11 0,0
01.08.2020 23:00:00 13,1 9,4 8 4 16 9 NO 1014,6 13 0,0

tt = temperatuur
td = dauwpunt
ff = windsnelheid
fx = windstoten
dd = windrichting
ppp = luchtdruk
vv = zicht
rr = neerslag

Weerstations in de omgeving